JAISAT-1
1 44419U 19038F 22166.92010154 .00010668 00000-0 53559-3 0 9993
2 44419 97.6358 137.0308 0020864 132.7841 227.5151 15.17290614162828
LightSail-2
1 44420U 19036AC 22167.03150817 .00100942 00000-0 13061-1 0 9994
2 44420 24.0017 141.2956 0008361 279.6923 80.2629 14.79254213156876
Taurus 1
1 44530U 19059C 22166.90033153 .00001640 00000-0 46211-3 0 9999
2 44530 98.5468 265.3955 0015136 122.9758 237.2916 14.47063377145623
Duchifat 3
1 44854U 19089C 22166.99224280 .00002581 00000-0 20404-3 0 9994
2 44854 36.9641 109.0076 0008389 220.3856 224.1069 15.01058695137716
OPS-SAT
1 44878U 19092F 22166.94430549 .00010701 00000-0 49851-3 0 9996
2 44878 97.4794 350.9069 0011825 352.3931 7.7122 15.20022673137961
TO-108
1 44881U 19093C 22166.89031541 .00000420 00000-0 59937-4 0 9998
2 44881 97.8925 246.1216 0014713 186.0780 174.0242 14.81724652134542
FloripaSat 1
1 44885U 19093G 22166.86050059 .00001413 00000-0 17961-3 0 9997
2 44885 97.8964 247.3671 0014215 192.1706 167.9186 14.83129561134616
RS-44
1 44909U 19096E 22166.93988236 .00000041 00000-0 12537-3 0 9992
2 44909 82.5220 231.2804 0216609 323.5316 35.1193 12.79713425115318
Phoenix
1 45258U 98067RB 22163.82960323 .11428466 12633-4 25365-3 0 9996
2 45258 51.6194 294.3376 0009579 296.6520 63.3527 16.45855778131755
BY70-2
1 45857U 20042B 22166.93875755 .00005442 00000-0 72901-3 0 9990
2 45857 97.9545 243.7922 0012531 120.2629 239.9973 14.79770649105230
UPMSat 2
1 46276U 20061E 22166.46164507 .00004710 00000-0 23376-3 0 9990
2 46276 97.3917 237.3302 0002427 134.7738 225.3694 15.18171999 98572
AmicalSat
1 46287U 20061R 22166.89174719 .00006435 00000-0 37145-3 0 9990
2 46287 97.4460 236.6677 0000903 285.2566 74.8565 15.12670236 98232
SALSAT
1 46495U 20068K 22166.83298404 .00002509 00000-0 18327-3 0 9999
2 46495 97.7306 108.1325 0014699 285.0246 74.9353 15.04511413 93949
BY70-3
1 46839U 20079N 22167.07337118 .00019655 00000-0 46388-3 0 9994
2 46839 97.1982 239.1832 0004056 354.2257 68.7012 15.41903451 90038
SPOC
1 46921U 98067RR 22166.28746850 .00650122 21535-3 92570-3 0 9990
2 46921 51.6235 298.2466 0011805 312.5134 47.4880 16.04824622 91676
Neutron-1
1 46923U 98067RT 22166.64631322 .00731215 27481-3 10399-2 0 9996
2 46923 51.6240 296.9067 0011704 312.8400 47.1627 16.04853128 91751
CAPE 3
1 47309U 21002A 22166.97346633 .00012015 00000-0 48933-3 0 9995
2 47309 60.6840 10.1218 0019903 332.3901 27.6128 15.24735266 78221
AO-109
1 47311U 21002C 22166.96080820 .00010541 00000-0 42478-3 0 9990
2 47311 60.6863 7.8658 0015704 334.9080 25.1244 15.25271095 78230
MiTEE 1
1 47314U 21002F 22167.01804127 .00022149 00000-0 76038-3 0 9990
2 47314 60.6832 1.1462 0013022 320.8271 39.1876 15.30085656 78379
ExoCube 2
1 47319U 21002L 22166.95908397 .00010199 00000-0 41642-3 0 9996
2 47319 60.6852 8.9285 0017137 336.2912 23.7384 15.24839217 78183
UVSQ-SAT
1 47438U 21006AB 22166.95970074 .00007585 00000-0 40142-3 0 9992
2 47438 97.4369 226.0003 0010131 280.4411 79.5679 15.15676079 77054
YUSAT 1
1 47439U 21006AC 22166.93033435 .00008834 00000-0 46132-3 0 9995
2 47439 97.4373 226.0655 0009935 280.1248 79.8864 15.16101056 77056
SOMP 2b
1 47445U 21006AJ 22166.89160331 .00006569 00000-0 35132-3 0 9994
2 47445 97.4343 225.6014 0009812 285.7805 74.2346 15.15359072 77032
IDEASSat
1 47458U 21006AX 22166.41110220 .00005329 00000-0 28711-3 0 9996
2 47458 97.4431 225.6256 0008959 285.8140 74.2104 15.15189787 76952
Tsuru
1 47927U 98067SD 22166.46831643 .00413282 78863-4 10571-2 0 9993
2 47927 51.6302 311.5557 0010128 299.1468 60.8525 15.94675841 71482
Maya-2
1 47929U 98067SF 22166.66719142 .00395003 72317-4 10447-2 0 9996
2 47929 51.6291 310.6341 0009732 299.1594 60.8439 15.94064797 71476
GuaraniSat-1
1 47931U 98067SH 22166.51496555 .00417722 80548-4 10580-2 0 9999
2 47931 51.6276 311.1252 0010011 300.5712 59.4308 15.94859474 71495
CubeSX-Sirius-HSE
1 47951U 21022V 22167.04629279 .00002885 00000-0 19349-3 0 9992
2 47951 97.5318 66.5973 0021986 146.1015 337.6984 15.07439626 67782
CubeSX-HSE
1 47952U 21022W 22166.90294351 .00002634 00000-0 17680-3 0 9994
2 47952 97.5308 66.4750 0021767 146.4286 348.5333 15.07490424 67764
KSU-Cubesat
1 47954U 21022Y 22166.97543898 .00005405 00000-0 35602-3 0 9999
2 47954 97.5320 66.6456 0021718 145.5570 214.7071 15.07736858 67506
GRBAlpha
1 47959U 21022AD 22167.03245825 .00002739 00000-0 18358-3 0 9997
2 47959 97.5316 66.6386 0021616 146.5307 340.8229 15.07513613 66602
Orbicraft-Zorkiy
1 47960U 21022AE 22167.07072854 .00004133 00000-0 27382-3 0 9990
2 47960 97.5345 66.8069 0021323 146.1186 324.9178 15.07668963 67305
STECCO
1 47962U 21022AG 22166.88218561 .00004927 00000-0 30944-3 0 9996
2 47962 97.5299 67.2871 0016901 139.7170 278.9995 15.09606655 66630
DO-111
1 47963U 21022AH 22166.49500618 .00017748 00000-0 99221-3 0 9999
2 47963 97.5329 67.8773 0018607 133.4091 226.8693 15.13394752 66656
MO-110
1 47964U 21022AJ 22166.98254414 .00009118 00000-0 56232-3 0 9991
2 47964 97.5315 67.6371 0019908 136.3433 223.9375 15.09995427 66668
FEES
1 48082U 21022AL 22166.45085638 .00010920 00000-0 66457-3 0 9998
2 48082 97.5326 67.0252 0016231 133.6015 226.6564 15.10483317 66286
RamSat
1 48850U 98067SL 22166.56293064 .00082113 00000-0 66337-3 0 9990
2 48850 51.6371 327.3007 0000591 326.7326 33.3634 15.70124717 57038
TUBIN
1 48900U 21059X 22167.05707422 .00003132 00000-0 17644-3 0 9997
2 48900 97.5534 296.3667 0011529 107.0238 9.6521 15.13903684 53702
IT-SPINS
1 49017U 21013G 22166.94731149 .00013057 00000-0 50397-3 0 9996
2 49017 51.5973 46.9037 0009000 76.0165 284.1814 15.26566118 53553
LEDSAT
1 49069U 21073D 22166.85754130 .00004365 00000-0 28057-3 0 9994
2 49069 97.5246 239.7781 0025447 301.6342 58.2404 15.08679033 45599
CUTE
1 49263U 21088D 22166.93105010 .00005629 00000-0 41964-3 0 9998
2 49263 97.5893 234.8792 0021215 71.5682 288.7847 15.03100328 39191
Binar-1
1 49272U 98067SR 22166.19647823 .00089270 00000-0 72822-3 0 9991
2 49272 51.6354 333.0759 0004872 278.5339 81.5106 15.69844134 39310
Maya-3
1 49273U 98067SS 22166.73482149 .00201963 00000-0 10594-2 0 9992
2 49273 51.6315 326.1359 0007419 284.8319 75.1860 15.79606135 39454
Maya-4
1 49274U 98067ST 22166.56905017 .00189622 00000-0 10320-2 0 9992
2 49274 51.6348 327.2826 0006907 280.8062 79.2161 15.78833588 39423
CUAVA-1
1 49275U 98067SU 22166.52655370 .00105149 00000-0 70381-3 0 9999
2 49275 51.6347 329.0291 0005535 289.1920 178.3218 15.74444492 39343
TeikyoSat 4
1 49396U 21102B 22166.89085172 .00001128 00000-0 93699-4 0 9996
2 49396 97.5254 225.0089 0013676 269.1107 90.8550 15.00612676 32815
Z-Sat
1 49399U 21102E 22167.03255426 .00002051 00000-0 15792-3 0 9990
2 49399 97.5391 225.8549 0022146 230.5221 129.4045 15.02569059 32872
KOSEN 1
1 49402U 21102H 22166.89616704 .00002577 00000-0 19203-3 0 9992
2 49402 97.5312 225.8405 0021193 222.2447 137.7147 15.03608365 32870
HO-113
1 50466U 21131B 22166.98965298 .00000212 00000-0 84098-4 0 9990
2 50466 98.5805 244.2442 0005540 142.7720 217.3852 14.38499865 24705
Tevel
1 50999U 22002R 22166.94877701 .00006209 00000-0 33677-3 0 9994
2 50999 97.4803 234.0407 0012650 69.6041 104.9470 15.14854524 23194
Grizu-263a
1 51025U 22002AT 22166.16352530 .00012845 00000-0 65698-3 0 9998
2 51025 97.4978 233.8325 0014153 77.5324 282.7491 15.16689222 23096
NO-116
1 51031U 22002AZ 22166.98933092 .00013067 00000-0 68463-3 0 9993
2 51031 97.4931 234.4785 0014416 73.5983 286.6833 15.15832524 23219
IRIS-A
1 51044U 22002BN 22166.15461437 .00004383 00000-0 24861-3 0 9990
2 51044 97.4821 233.0752 0010779 77.1294 283.1141 15.13433131 23069
DELFI-PQ
1 51074U 22002CU 22166.91620328 .00014691 00000-0 73656-3 0 9992
2 51074 97.5060 234.9833 0015492 101.1377 259.1599 15.17341032 23225
SO-115
1 51080U 22002DA 22165.63346436 .00008522 00000-0 43926-3 0 9995
2 51080 97.5075 233.6540 0015282 104.7444 255.5484 15.16516175 23022
SO-114
1 51081U 22002DB 22166.42581871 .00008155 00000-0 42031-3 0 9996
2 51081 97.5063 234.4209 0015623 102.1972 258.1011 15.16530117 23148
OreSat0
1 52017U 22026K 22166.97390923 .00007887 00000-0 42226-3 0 9995
2 52017 97.5011 166.8387 0025246 280.0203 79.8180 15.15027354 13968
Planetum 1
1 52738U 22057G 22166.99563040 .00007572 00000-0 44547-3 0 9992
2 52738 97.5129 281.6735 0008932 168.2086 191.9355 15.11899525 3210
Foresail-1
1 52766U 22057AL 22166.97659289 .00005434 00000-0 30861-3 0 9991
2 52766 97.5227 281.7276 0014670 153.5359 206.6624 15.13243146 3214
